Retour au catalogue

STARLINK-35720

ActifCommunicationsVLEO
NORAD 67052·PAYLOAD·🇺🇸 United States

Lancé Dec 11, 2025 depuis Cape Canaveral Space Force Station

Loading…

Prochains Passages (prochaines 24 heures)

TLE

FraisSource: CelesTrak SupGP

Époque: Sep 14, 2026, 20:49 UTC

1 67052C 25294Y   26257.86784722  .00047389  00000+0  17167-2 0  2579
2 67052  43.0043  49.5977 0001542 274.4989  50.3704 15.27549419    19

Suivez STARLINK-35720 en temps réel avec AllMySat

Download on the App Store